Location: Ostrava
(49.8330°N, 18.2830°E)
Time: 18:26:51
(UTC+02:00)

ISS - Visible Passes

Search period start: 19 October 2020 00:00
Search period end: 28 October 2020 23:00
Orbit: 418 x 419 km, 51.6° (Epoch: 19 October)

Date Brightness Start Highest point End Pass type
(mag) Time Alt. Az. Time Alt. Az. Time Alt. Az.
22 Oct -0.5 06:07:06 10° SSE 06:07:55 11° SE 06:08:44 10° ESE visible
24 Oct -1.5 06:06:04 10° SSW 06:08:48 23° SE 06:11:33 10° E visible
25 Oct -1.1 04:19:31 12° S 04:21:15 16° SE 04:23:25 10° E visible
26 Oct -0.6 03:34:12 10° SE 03:34:12 10° SE 03:34:27 10° ESE visible
26 Oct -2.9 05:07:11 14° SW 05:09:53 48° SSE 05:13:08 10° ENE visible
27 Oct -2.5 04:21:45 32° SSE 04:22:13 33° SSE 04:25:18 10° E visible
27 Oct -3.7 05:55:29 10° W 05:58:51 77° NNW 06:02:14 10° ENE visible
28 Oct -0.9 03:36:12 17° ESE 03:36:12 17° ESE 03:37:20 10° E visible
28 Oct -3.8 05:09:09 23° WSW 05:11:05 86° SSE 05:14:28 10° ENE visible
